Powrót do katalogu

FENGYUN 1C DEB

AktywnySSO
NORAD 36262·DEBRIS·🇨🇳 China

Wystrzelony May 10, 1999 z Taiyuan Satellite Launch Center

Loading…

Następne Przeloty (najbliższe 24 godziny)

TLE

ŚwieżeSource: Space-Track

Epoka: Sep 14, 2026, 23:11 UTC

1 36262U 99025DWP 26257.96633361  .00000328  00000-0  14764-3 0  9991
2 36262  98.9265 150.1468 0059853 193.5383 166.4195 14.28116628934396

Śledź FENGYUN 1C DEB w czasie rzeczywistym z AllMySat

Download on the App Store